| time (UTC) | temp C | wind direction | speed KPH | gust KPH | rain 1hr cm | rain 24hr cm | rain mn cm | humidity % | barometer mb |
| 20260504173546 | 28 | 57 | 6.4 | 12.9 | 0.00 | 0.00 | 0.00 | 51 | 1019.1 |
| 20260504173045 | 28 | 15 | 4.8 | 11.3 | 0.00 | 0.00 | 0.00 | 52 | 1019.1 |
| 20260504172545 | 28 | 30 | 4.8 | 11.3 | 0.00 | 0.00 | 0.00 | 52 | 1019.2 |
| 20260504172046 | 28 | 13 | 3.2 | 8.0 | 0.00 | 0.00 | 0.00 | 52 | 1019.2 |
| 20260504171547 | 27 | 100 | 3.2 | 8.0 | 0.00 | 0.00 | 0.00 | 53 | 1019.3 |
| 20260504171045 | 28 | 343 | 3.2 | 8.0 | 0.00 | 0.00 | 0.00 | 51 | 1019.4 |
| 20260504170545 | 28 | 332 | 4.8 | 12.9 | 0.00 | 0.00 | 0.00 | 51 | 1019.4 |
| 20260504151045 | 25 | 28 | 8.0 | 14.5 | 0.00 | 0.00 | 0.00 | 60 | 1020.8 |
| 20260504150545 | 25 | 20 | 6.4 | 17.7 | 0.00 | 0.00 | 0.00 | 59 | 1020.9 |
| 20260504141045 | 23 | 57 | 8.0 | 16.1 | 0.00 | 0.00 | 0.00 | 64 | 1021.5 |
| 20260504140545 | 23 | 68 | 8.0 | 14.5 | 0.00 | 0.00 | 0.00 | 64 | 1021.5 |
| 20260504130545 | 21 | 83 | 12.9 | 19.3 | 0.00 | 0.00 | 0.00 | 68 | 1022.2 |
| 20260504110545 | 16 | 104 | 11.3 | 20.9 | 0.00 | 0.00 | 0.00 | 82 | 1021.5 |
| 20260504100545 | 14 | 109 | 11.3 | 24.1 | 0.00 | 0.00 | 0.00 | 90 | 1020.6 |
| 20260504081545 | 14 | 104 | 11.3 | 20.9 | 0.00 | 0.00 | 0.00 | 89 | 1019.4 |
| 20260504081045 | 15 | 103 | 12.9 | 24.1 | 0.00 | 0.00 | 0.00 | 89 | 1019.4 |
| 20260504080545 | 15 | 105 | 14.5 | 22.5 | 0.00 | 0.00 | 0.00 | 89 | 1019.4 |
| 20260504050544 | 15 | 122 | 11.3 | 25.7 | 0.00 | 0.00 | 0.00 | 84 | 1020.3 |
| 20260504045544 | 16 | 119 | 11.3 | 22.5 | 0.00 | 0.00 | 0.00 | 83 | 1020.3 |
| 20260504045044 | 16 | 124 | 11.3 | 24.1 | 0.00 | 0.00 | 0.00 | 83 | 1020.3 |
| 20260504044544 | 16 | 124 | 11.3 | 24.1 | 0.00 | 0.00 | 0.00 | 83 | 1020.4 |
| 20260504044044 | 16 | 121 | 12.9 | 25.7 | 0.00 | 0.00 | 0.00 | 83 | 1020.4 |
| 20260504043544 | 16 | 118 | 12.9 | 30.6 | 0.00 | 0.00 | 0.00 | 83 | 1020.4 |
| 20260504043046 | 16 | 120 | 11.3 | 29.0 | 0.00 | 0.00 | 0.00 | 83 | 1020.4 |
| 20260504042544 | 16 | 125 | 11.3 | 25.7 | 0.00 | 0.00 | 0.00 | 83 | 1020.4 |
| 20260504042044 | 16 | 118 | 11.3 | 22.5 | 0.00 | 0.00 | 0.00 | 83 | 1020.4 |
| 20260504041544 | 16 | 123 | 11.3 | 27.4 | 0.00 | 0.00 | 0.00 | 82 | 1020.5 |
| 20260504041044 | 16 | 125 | 11.3 | 29.0 | 0.00 | 0.00 | 0.00 | 82 | 1020.5 |
| 20260504040544 | 16 | 122 | 11.3 | 22.5 | 0.00 | 0.00 | 0.00 | 83 | 1020.5 |
| 20260504040044 | 16 | 124 | 12.9 | 25.7 | 0.00 | 0.00 | 0.00 | 82 | 1020.6 |
| 20260504035544 | 16 | 125 | 12.9 | 32.2 | 0.00 | 0.00 | 0.00 | 82 | 1020.5 |
| 20260504035044 | 16 | 119 | 12.9 | 32.2 | 0.00 | 0.00 | 0.00 | 82 | 1020.5 |
| 20260504034544 | 16 | 121 | 12.9 | 40.2 | 0.00 | 0.00 | 0.00 | 82 | 1020.6 |
| 20260504034044 | 16 | 125 | 11.3 | 29.0 | 0.00 | 0.00 | 0.00 | 82 | 1020.6 |
| 20260504033544 | 16 | 122 | 11.3 | 22.5 | 0.00 | 0.00 | 0.00 | 82 | 1020.6 |
| 20260504033044 | 16 | 121 | 14.5 | 27.4 | 0.00 | 0.00 | 0.00 | 82 | 1020.6 |
| 20260504032544 | 16 | 120 | 12.9 | 27.4 | 0.00 | 0.00 | 0.00 | 82 | 1020.7 |
| 20260504032045 | 16 | 123 | 14.5 | 32.2 | 0.00 | 0.00 | 0.00 | 82 | 1020.7 |
| 20260504031544 | 16 | 124 | 9.7 | 27.4 | 0.00 | 0.00 | 0.00 | 82 | 1020.6 |
| 20260504031044 | 16 | 127 | 12.9 | 30.6 | 0.00 | 0.00 | 0.00 | 82 | 1020.8 |
| 20260504030544 | 16 | 123 | 11.3 | 29.0 | 0.00 | 0.00 | 0.00 | 82 | 1020.8 |
| 20260504030044 | 16 | 121 | 14.5 | 37.0 | 0.00 | 0.00 | 0.00 | 82 | 1020.7 |
| 20260504025544 | 16 | 118 | 12.9 | 30.6 | 0.00 | 0.00 | 0.00 | 82 | 1020.7 |
| 20260504025044 | 16 | 120 | 11.3 | 22.5 | 0.00 | 0.00 | 0.00 | 82 | 1020.8 |
| 20260504024544 | 16 | 122 | 11.3 | 24.1 | 0.00 | 0.00 | 0.00 | 82 | 1020.7 |
| 20260504024044 | 16 | 121 | 12.9 | 32.2 | 0.00 | 0.00 | 0.00 | 81 | 1020.7 |
| 20260504023544 | 16 | 118 | 12.9 | 33.8 | 0.00 | 0.00 | 0.00 | 81 | 1020.7 |
| 20260504023044 | 16 | 122 | 16.1 | 32.2 | 0.00 | 0.00 | 0.00 | 81 | 1020.7 |
| 20260504022544 | 16 | 122 | 12.9 | 29.0 | 0.00 | 0.00 | 0.00 | 81 | 1020.7 |
| 20260504022044 | 16 | 121 | 12.9 | 30.6 | 0.00 | 0.00 | 0.00 | 81 | 1020.8 |
| 20260504021544 | 16 | 123 | 12.9 | 32.2 | 0.00 | 0.00 | 0.00 | 80 | 1020.8 |
| 20260504021044 | 16 | 120 | 16.1 | 37.0 | 0.00 | 0.00 | 0.00 | 80 | 1020.7 |
| 20260504020544 | 16 | 118 | 12.9 | 27.4 | 0.00 | 0.00 | 0.00 | 80 | 1020.7 |
| 20260504020044 | 17 | 118 | 14.5 | 35.4 | 0.00 | 0.00 | 0.00 | 80 | 1020.8 |
| 20260504015544 | 16 | 122 | 12.9 | 32.2 | 0.00 | 0.00 | 0.00 | 80 | 1020.7 |
| 20260504015044 | 17 | 121 | 12.9 | 24.1 | 0.00 | 0.00 | 0.00 | 79 | 1020.7 |
| 20260504014544 | 17 | 122 | 12.9 | 29.0 | 0.00 | 0.00 | 0.00 | 79 | 1020.8 |
| 20260504014044 | 17 | 121 | 12.9 | 30.6 | 0.00 | 0.00 | 0.00 | 79 | 1020.7 |
| 20260504013544 | 17 | 120 | 16.1 | 33.8 | 0.00 | 0.00 | 0.00 | 78 | 1020.8 |
| 20260504013044 | 17 | 123 | 14.5 | 25.7 | 0.00 | 0.00 | 0.00 | 78 | 1020.8 |
| 20260504012544 | 17 | 118 | 12.9 | 24.1 | 0.00 | 0.00 | 0.00 | 78 | 1020.9 |
| 20260504012044 | 17 | 124 | 12.9 | 27.4 | 0.00 | 0.00 | 0.00 | 78 | 1020.8 |
| 20260504011544 | 17 | 119 | 14.5 | 29.0 | 0.00 | 0.00 | 0.00 | 77 | 1020.8 |
| 20260504011044 | 17 | 115 | 14.5 | 32.2 | 0.00 | 0.00 | 0.00 | 77 | 1020.9 |
| 20260504010544 | 17 | 118 | 14.5 | 29.0 | 0.00 | 0.00 | 0.00 | 77 | 1020.8 |
| 20260504010044 | 17 | 117 | 16.1 | 33.8 | 0.00 | 0.00 | 0.00 | 77 | 1020.9 |
| 20260504005544 | 17 | 118 | 12.9 | 35.4 | 0.00 | 0.00 | 0.00 | 77 | 1020.9 |
| 20260504005044 | 17 | 121 | 14.5 | 29.0 | 0.00 | 0.00 | 0.00 | 78 | 1020.9 |
| 20260504004544 | 17 | 118 | 12.9 | 33.8 | 0.00 | 0.00 | 0.00 | 78 | 1020.9 |
| 20260504004044 | 17 | 122 | 12.9 | 29.0 | 0.00 | 0.00 | 0.00 | 78 | 1020.9 |
| 20260504003544 | 17 | 121 | 12.9 | 29.0 | 0.00 | 0.00 | 0.00 | 79 | 1020.9 |
| 20260504003044 | 17 | 120 | 14.5 | 27.4 | 0.00 | 0.00 | 0.00 | 79 | 1020.9 |
| 20260504002544 | 17 | 122 | 9.7 | 22.5 | 0.00 | 0.00 | 0.00 | 80 | 1021.0 |
| 20260504002044 | 17 | 122 | 9.7 | 20.9 | 0.00 | 0.00 | 0.00 | 79 | 1021.0 |
| 20260504001544 | 17 | 128 | 11.3 | 27.4 | 0.00 | 0.00 | 0.00 | 80 | 1021.0 |
| 20260504001044 | 17 | 128 | 9.7 | 19.3 | 0.00 | 0.00 | 0.00 | 80 | 1021.0 |
| 20260504000544 | 18 | 132 | 9.7 | 20.9 | 0.00 | 0.00 | 0.00 | 79 | 1021.1 |
| 20260504000044 | 18 | 124 | 9.7 | 19.3 | 0.00 | 0.00 | 0.00 | 79 | 1021.0 |
| 20260503235544 | 18 | 122 | 9.7 | 22.5 | 0.00 | 0.00 | 0.00 | 78 | 1021.0 |
| 20260503235044 | 18 | 120 | 12.9 | 27.4 | 0.00 | 0.00 | 0.00 | 78 | 1020.8 |
| 20260503234544 | 18 | 121 | 12.9 | 29.0 | 0.00 | 0.00 | 0.00 | 78 | 1020.8 |
| 20260503234044 | 18 | 124 | 9.7 | 22.5 | 0.00 | 0.00 | 0.00 | 78 | 1020.7 |
| 20260503233544 | 18 | 124 | 9.7 | 22.5 | 0.00 | 0.00 | 0.00 | 78 | 1020.7 |
| 20260503233044 | 18 | 122 | 11.3 | 24.1 | 0.00 | 0.00 | 0.00 | 78 | 1020.7 |
| 20260503232544 | 18 | 125 | 9.7 | 19.3 | 0.00 | 0.00 | 0.00 | 78 | 1020.6 |
| 20260503232044 | 18 | 119 | 12.9 | 25.7 | 0.00 | 0.00 | 0.00 | 78 | 1020.6 |
| 20260503231544 | 18 | 125 | 9.7 | 25.7 | 0.00 | 0.00 | 0.00 | 78 | 1020.5 |
| 20260503231044 | 18 | 124 | 11.3 | 24.1 | 0.00 | 0.00 | 0.00 | 78 | 1020.4 |
| 20260503230544 | 18 | 123 | 9.7 | 25.7 | 0.00 | 0.00 | 0.00 | 78 | 1020.4 |
| 20260503230044 | 18 | 130 | 11.3 | 25.7 | 0.00 | 0.00 | 0.00 | 78 | 1020.3 |
| 20260503225544 | 18 | 120 | 11.3 | 20.9 | 0.00 | 0.00 | 0.00 | 77 | 1020.3 |
| 20260503225044 | 18 | 125 | 11.3 | 20.9 | 0.00 | 0.00 | 0.00 | 77 | 1020.2 |
| 20260503224544 | 18 | 126 | 8.0 | 22.5 | 0.00 | 0.00 | 0.00 | 77 | 1020.2 |
| 20260503224044 | 19 | 125 | 9.7 | 17.7 | 0.00 | 0.00 | 0.00 | 77 | 1020.2 |
| 20260503223544 | 19 | 127 | 9.7 | 17.7 | 0.00 | 0.00 | 0.00 | 76 | 1020.2 |
| 20260503223044 | 19 | 125 | 8.0 | 16.1 | 0.00 | 0.00 | 0.00 | 76 | 1020.2 |
| 20260503222544 | 19 | 126 | 9.7 | 22.5 | 0.00 | 0.00 | 0.00 | 76 | 1019.9 |
| 20260503222044 | 19 | 121 | 9.7 | 20.9 | 0.00 | 0.00 | 0.00 | 75 | 1019.9 |
| 20260503221544 | 19 | 128 | 9.7 | 17.7 | 0.00 | 0.00 | 0.00 | 75 | 1019.9 |
| 20260503221044 | 19 | 126 | 9.7 | 24.1 | 0.00 | 0.00 | 0.00 | 74 | 1019.9 |
| 20260503220544 | 20 | 119 | 9.7 | 24.1 | 0.00 | 0.00 | 0.00 | 74 | 1019.9 |
| 20260503220044 | 20 | 132 | 8.0 | 20.9 | 0.00 | 0.00 | 0.00 | 74 | 1019.7 |
| 20260503215544 | 20 | 127 | 9.7 | 22.5 | 0.00 | 0.00 | 0.00 | 74 | 1019.6 |
| 20260503215044 | 20 | 117 | 11.3 | 25.7 | 0.00 | 0.00 | 0.00 | 73 | 1019.6 |
| 20260503214544 | 20 | 123 | 9.7 | 20.9 | 0.00 | 0.00 | 0.00 | 74 | 1019.6 |
| 20260503214044 | 20 | 119 | 9.7 | 20.9 | 0.00 | 0.00 | 0.00 | 74 | 1019.7 |
| 20260503213544 | 20 | 113 | 11.3 | 22.5 | 0.00 | 0.00 | 0.00 | 74 | 1019.6 |
| 20260503213044 | 20 | 112 | 11.3 | 22.5 | 0.00 | 0.00 | 0.00 | 73 | 1019.6 |
| 20260503212544 | 20 | 113 | 9.7 | 22.5 | 0.00 | 0.00 | 0.00 | 74 | 1019.6 |
| 20260503212044 | 20 | 122 | 9.7 | 19.3 | 0.00 | 0.00 | 0.00 | 73 | 1019.7 |
| 20260503211544 | 21 | 114 | 11.3 | 25.7 | 0.00 | 0.00 | 0.00 | 73 | 1019.6 |
| 20260503211044 | 21 | 114 | 12.9 | 29.0 | 0.00 | 0.00 | 0.00 | 73 | 1019.6 |
| 20260503210544 | 21 | 106 | 9.7 | 20.9 | 0.00 | 0.00 | 0.00 | 73 | 1019.6 |
| 20260503210044 | 21 | 107 | 11.3 | 22.5 | 0.00 | 0.00 | 0.00 | 72 | 1019.5 |
| 20260503205544 | 21 | 113 | 8.0 | 19.3 | 0.00 | 0.00 | 0.00 | 72 | 1019.5 |
| 20260503205044 | 21 | 115 | 9.7 | 22.5 | 0.00 | 0.00 | 0.00 | 71 | 1019.4 |
| 20260503204544 | 21 | 115 | 11.3 | 24.1 | 0.00 | 0.00 | 0.00 | 70 | 1019.4 |
| 20260503204044 | 21 | 109 | 11.3 | 25.7 | 0.00 | 0.00 | 0.00 | 70 | 1019.3 |
| 20260503203544 | 22 | 111 | 12.9 | 29.0 | 0.00 | 0.00 | 0.00 | 69 | 1019.3 |
| 20260503203044 | 22 | 112 | 12.9 | 25.7 | 0.00 | 0.00 | 0.00 | 69 | 1019.3 |
| 20260503202544 | 22 | 107 | 9.7 | 17.7 | 0.00 | 0.00 | 0.00 | 69 | 1019.3 |
| 20260503202044 | 22 | 109 | 12.9 | 25.7 | 0.00 | 0.00 | 0.00 | 68 | 1019.3 |
| 20260503201544 | 22 | 107 | 12.9 | 25.7 | 0.00 | 0.00 | 0.00 | 68 | 1019.2 |
| 20260503201044 | 22 | 102 | 14.5 | 22.5 | 0.00 | 0.00 | 0.00 | 68 | 1019.2 |
| 20260503200544 | 23 | 109 | 12.9 | 22.5 | 0.00 | 0.00 | 0.00 | 67 | 1019.2 |
| 20260503200044 | 23 | 106 | 11.3 | 24.1 | 0.00 | 0.00 | 0.00 | 66 | 1019.1 |
| 20260503195545 | 23 | 117 | 9.7 | 17.7 | 0.00 | 0.00 | 0.00 | 66 | 1019.1 |
| 20260503195044 | 23 | 114 | 11.3 | 22.5 | 0.00 | 0.00 | 0.00 | 65 | 1019.1 |
| 20260503194544 | 23 | 112 | 12.9 | 22.5 | 0.00 | 0.00 | 0.00 | 65 | 1019.0 |
| 20260503194044 | 23 | 102 | 16.1 | 25.7 | 0.00 | 0.00 | 0.00 | 65 | 1019.1 |
| 20260503193544 | 24 | 100 | 14.5 | 27.4 | 0.00 | 0.00 | 0.00 | 64 | 1018.9 |
| 20260503193044 | 24 | 109 | 14.5 | 29.0 | 0.00 | 0.00 | 0.00 | 62 | 1018.9 |
| 20260503192544 | 24 | 104 | 14.5 | 32.2 | 0.00 | 0.00 | 0.00 | 62 | 1018.9 |
| 20260503192044 | 24 | 119 | 9.7 | 19.3 | 0.00 | 0.00 | 0.00 | 61 | 1018.9 |
| 20260503191544 | 25 | 108 | 12.9 | 25.7 | 0.00 | 0.00 | 0.00 | 62 | 1018.9 |
| 20260503191044 | 25 | 106 | 14.5 | 25.7 | 0.00 | 0.00 | 0.00 | 61 | 1018.9 |
| 20260503190544 | 25 | 112 | 11.3 | 25.7 | 0.00 | 0.00 | 0.00 | 61 | 1018.9 |
| 20260503190044 | 25 | 105 | 12.9 | 25.7 | 0.00 | 0.00 | 0.00 | 61 | 1018.9 |
| 20260503185544 | 25 | 103 | 12.9 | 24.1 | 0.00 | 0.00 | 0.00 | 61 | 1018.9 |
| 20260503185044 | 25 | 105 | 14.5 | 24.1 | 0.00 | 0.00 | 0.00 | 61 | 1018.9 |
| 20260503184544 | 25 | 108 | 12.9 | 22.5 | 0.00 | 0.00 | 0.00 | 61 | 1019.0 |
| 20260503184044 | 25 | 111 | 11.3 | 19.3 | 0.00 | 0.00 | 0.00 | 61 | 1018.8 |
| 20260503183544 | 24 | 103 | 11.3 | 27.4 | 0.00 | 0.00 | 0.00 | 63 | 1019.0 |
| 20260503183044 | 25 | 105 | 14.5 | 25.7 | 0.00 | 0.00 | 0.00 | 62 | 1019.0 |
| 20260503182544 | 25 | 106 | 12.9 | 29.0 | 0.00 | 0.00 | 0.00 | 61 | 1019.0 |
| 20260503182044 | 25 | 107 | 12.9 | 19.3 | 0.00 | 0.00 | 0.00 | 60 | 1019.0 |
| 20260503181544 | 25 | 108 | 14.5 | 24.1 | 0.00 | 0.00 | 0.00 | 58 | 1019.1 |
| 20260503181044 | 26 | 119 | 9.7 | 19.3 | 0.00 | 0.00 | 0.00 | 58 | 1019.1 |
| 20260503180544 | 26 | 120 | 8.0 | 22.5 | 0.00 | 0.00 | 0.00 | 58 | 1019.0 |
| 20260503180044 | 26 | 92 | 11.3 | 17.7 | 0.00 | 0.00 | 0.00 | 58 | 1019.1 |
| 20260503175544 | 25 | 107 | 11.3 | 17.7 | 0.00 | 0.00 | 0.00 | 59 | 1019.1 |
| 20260503175044 | 25 | 93 | 11.3 | 22.5 | 0.00 | 0.00 | 0.00 | 58 | 1019.3 |
| 20260503174544 | 25 | 99 | 14.5 | 25.7 | 0.00 | 0.00 | 0.00 | 59 | 1019.3 |
| 20260503174044 | 25 | 94 | 12.9 | 25.7 | 0.00 | 0.00 | 0.00 | 60 | 1019.4 |